WJA007 KPDX-CYVR

Flight info

Callsign WJA007
Flight time 0h 41m
Altitude 32000
Route BTG J1 SEA DCT PAE GRIZZ9
Aircraft B738/M-SDE2E3FGHIRWXY/LB1

Departure

Time 2026-05-06 07:05
Airport Portland International Airport (KPDX)

Arrival

Time 2026-05-06 07:46
Airport Vancouver International Airport (CYVR)
Time Latitude Longitude Altitude Speed Heading
2026-05-06 06:41 45.59144 -122.59467 30 ft 0 kts 229°
2026-05-06 06:55 45.59149 -122.59459 30 ft 4 kts 225°
2026-05-06 06:55 45.59169 -122.59435 29 ft 4 kts 212°
2026-05-06 06:55 45.59193 -122.59420 29 ft 4 kts 182°
2026-05-06 06:55 45.59217 -122.59427 29 ft 4 kts 138°
2026-05-06 06:56 45.59225 -122.59440 29 ft 1 kts 121°
2026-05-06 06:58 45.59223 -122.59436 29 ft 2 kts 121°
2026-05-06 06:58 45.59208 -122.59378 30 ft 10 kts 100°
2026-05-06 06:58 45.59209 -122.59276 33 ft 10 kts 88°
2026-05-06 06:58 45.59202 -122.59178 36 ft 10 kts 108°
2026-05-06 06:59 45.59164 -122.59072 34 ft 16 kts 119°
2026-05-06 06:59 45.59098 -122.58904 35 ft 21 kts 119°
2026-05-06 06:59 45.59028 -122.58724 32 ft 21 kts 119°
2026-05-06 06:59 45.58958 -122.58543 30 ft 21 kts 120°
2026-05-06 07:00 45.58893 -122.58376 29 ft 16 kts 119°
2026-05-06 07:00 45.58841 -122.58244 33 ft 15 kts 119°
2026-05-06 07:00 45.58800 -122.58139 32 ft 11 kts 119°
2026-05-06 07:00 45.58762 -122.58042 36 ft 11 kts 119°
2026-05-06 07:01 45.58725 -122.57947 36 ft 11 kts 119°
2026-05-06 07:01 45.58690 -122.57856 35 ft 10 kts 119°
2026-05-06 07:01 45.58645 -122.57742 35 ft 17 kts 119°
2026-05-06 07:01 45.58585 -122.57589 33 ft 17 kts 119°
2026-05-06 07:02 45.58526 -122.57438 28 ft 18 kts 119°
2026-05-06 07:02 45.58466 -122.57283 29 ft 18 kts 119°
2026-05-06 07:02 45.58407 -122.57131 29 ft 17 kts 119°
2026-05-06 07:02 45.58356 -122.57002 30 ft 12 kts 119°
2026-05-06 07:03 45.58316 -122.56898 34 ft 12 kts 119°
2026-05-06 07:03 45.58278 -122.56797 33 ft 12 kts 112°
2026-05-06 07:03 45.58275 -122.56740 32 ft 2 kts 73°
2026-05-06 07:03 45.58277 -122.56736 32 ft 0 kts 68°
2026-05-06 07:04 45.58301 -122.56703 30 ft 12 kts 27°
2026-05-06 07:04 45.58384 -122.56749 31 ft 17 kts 301°
2026-05-06 07:04 45.58550 -122.57176 29 ft 83 kts 299°
2026-05-06 07:05 45.58929 -122.58150 33 ft 140 kts 299°
2026-05-06 07:05 45.59468 -122.59539 222 ft 168 kts 298°
2026-05-06 07:05 45.59987 -122.60996 958 ft 165 kts 295°
2026-05-06 07:05 45.60467 -122.62484 1653 ft 165 kts 295°
2026-05-06 07:06 45.60969 -122.64048 2111 ft 185 kts 294°
2026-05-06 07:06 45.61584 -122.65823 2345 ft 212 kts 297°
2026-05-06 07:06 45.62570 -122.67504 2515 ft 236 kts 326°
2026-05-06 07:06 45.64192 -122.68210 2817 ft 256 kts 359°
2026-05-06 07:07 45.65994 -122.68011 3536 ft 262 kts
2026-05-06 07:07 45.67778 -122.67613 4465 ft 258 kts
2026-05-06 07:07 45.69543 -122.67177 5338 ft 258 kts
2026-05-06 07:07 45.71332 -122.66728 5974 ft 265 kts
2026-05-06 07:08 45.73167 -122.66276 6673 ft 270 kts
2026-05-06 07:08 45.75029 -122.65828 7376 ft 273 kts
2026-05-06 07:08 45.76913 -122.65384 8088 ft 276 kts
2026-05-06 07:08 45.78817 -122.64941 8786 ft 280 kts
2026-05-06 07:09 45.80755 -122.64496 9488 ft 284 kts
2026-05-06 07:09 45.82717 -122.64050 10164 ft 288 kts
2026-05-06 07:09 45.84740 -122.63592 10560 ft 302 kts
2026-05-06 07:09 45.86844 -122.63118 11097 ft 309 kts
2026-05-06 07:10 45.88949 -122.62644 11779 ft 310 kts
2026-05-06 07:10 45.91088 -122.62162 12496 ft 312 kts
2026-05-06 07:10 45.93243 -122.61678 13205 ft 315 kts
2026-05-06 07:10 45.95422 -122.61189 13921 ft 318 kts
2026-05-06 07:11 45.97616 -122.60696 14586 ft 320 kts
2026-05-06 07:11 45.99828 -122.60198 15255 ft 323 kts
2026-05-06 07:11 46.02063 -122.59696 15900 ft 328 kts
2026-05-06 07:11 46.04328 -122.59187 16581 ft 330 kts
2026-05-06 07:12 46.06609 -122.58673 17269 ft 333 kts
2026-05-06 07:12 46.08915 -122.58154 17924 ft 337 kts
2026-05-06 07:12 46.11243 -122.57629 18563 ft 341 kts
2026-05-06 07:12 46.13591 -122.57099 19154 ft 343 kts
2026-05-06 07:13 46.15959 -122.56563 19748 ft 345 kts
2026-05-06 07:13 46.18340 -122.56025 20337 ft 348 kts
2026-05-06 07:13 46.20738 -122.55482 20925 ft 350 kts
2026-05-06 07:13 46.23157 -122.54934 21516 ft 353 kts
2026-05-06 07:14 46.25594 -122.54381 22091 ft 356 kts
2026-05-06 07:14 46.28047 -122.53824 22646 ft 358 kts
2026-05-06 07:14 46.30520 -122.53263 23203 ft 361 kts
2026-05-06 07:14 46.33014 -122.52696 23756 ft 364 kts
2026-05-06 07:15 46.35520 -122.52125 24279 ft 364 kts
2026-05-06 07:15 46.38018 -122.51556 24810 ft 364 kts
2026-05-06 07:15 46.40533 -122.50982 25241 ft 367 kts
2026-05-06 07:15 46.43065 -122.50404 25657 ft 370 kts
2026-05-06 07:16 46.45582 -122.49829 26103 ft 372 kts
2026-05-06 07:16 46.48147 -122.49243 26556 ft 374 kts
2026-05-06 07:16 46.50728 -122.48652 27006 ft 376 kts
2026-05-06 07:16 46.53327 -122.48057 27385 ft 380 kts
2026-05-06 07:17 46.55951 -122.47455 27757 ft 383 kts
2026-05-06 07:17 46.58594 -122.46848 28184 ft 385 kts
2026-05-06 07:17 46.61246 -122.46239 28613 ft 386 kts
2026-05-06 07:17 46.63910 -122.45625 28992 ft 389 kts
2026-05-06 07:18 46.66591 -122.45008 29403 ft 391 kts
2026-05-06 07:18 46.69277 -122.44389 29861 ft 391 kts
2026-05-06 07:18 46.71968 -122.43768 30227 ft 393 kts
2026-05-06 07:18 46.74685 -122.43140 30512 ft 396 kts
2026-05-06 07:19 46.77415 -122.42509 30817 ft 398 kts
2026-05-06 07:19 46.80161 -122.41874 31043 ft 402 kts
2026-05-06 07:19 46.82939 -122.41235 31311 ft 404 kts
2026-05-06 07:19 46.85694 -122.40704 31629 ft 405 kts
2026-05-06 07:20 46.88498 -122.40242 31929 ft 406 kts
2026-05-06 07:20 46.89758 -122.40043 32053 ft 407 kts
2026-05-06 07:20 46.92590 -122.39601 32085 ft 414 kts
2026-05-06 07:21 46.98437 -122.38662 32137 ft 426 kts
2026-05-06 07:21 47.03102 -122.37887 32123 ft 431 kts
2026-05-06 07:22 47.09038 -122.36882 32118 ft 433 kts
2026-05-06 07:22 47.15068 -122.35856 32101 ft 434 kts
2026-05-06 07:23 47.21022 -122.34843 32099 ft 433 kts
2026-05-06 07:23 47.26991 -122.33825 32091 ft 430 kts
2026-05-06 07:24 47.32930 -122.32811 32114 ft 428 kts
2026-05-06 07:24 47.38813 -122.31803 32075 ft 418 kts
2026-05-06 07:24 47.41685 -122.31310 31750 ft 412 kts
2026-05-06 07:25 47.44510 -122.30871 31390 ft 406 kts
2026-05-06 07:25 47.47319 -122.30619 30995 ft 402 kts
2026-05-06 07:25 47.50103 -122.30454 30593 ft 399 kts
2026-05-06 07:25 47.52866 -122.30311 30197 ft 396 kts
2026-05-06 07:26 47.55611 -122.30165 29726 ft 394 kts
2026-05-06 07:26 47.58335 -122.30008 29289 ft 390 kts
2026-05-06 07:26 47.61040 -122.29842 28885 ft 386 kts
2026-05-06 07:26 47.63711 -122.29671 28473 ft 383 kts
2026-05-06 07:27 47.66366 -122.29498 28064 ft 380 kts
2026-05-06 07:27 47.68993 -122.29324 27675 ft 377 kts
2026-05-06 07:27 47.71604 -122.29152 27279 ft 374 kts
2026-05-06 07:27 47.74192 -122.28981 26908 ft 371 kts
2026-05-06 07:28 47.76746 -122.28812 26668 ft 365 kts
2026-05-06 07:28 47.79302 -122.28643 26434 ft 372 kts
2026-05-06 07:28 47.84575 -122.28297 25959 ft 382 kts
2026-05-06 07:29 47.87218 -122.28119 25706 ft 378 kts
2026-05-06 07:29 47.89835 -122.28102 25453 ft 374 kts 352°
2026-05-06 07:29 47.92364 -122.28846 25223 ft 369 kts 342°
2026-05-06 07:29 47.94751 -122.30198 24984 ft 365 kts 332°
2026-05-06 07:30 47.96947 -122.32064 24720 ft 362 kts 328°
2026-05-06 07:30 47.99097 -122.33993 24370 ft 359 kts 328°
2026-05-06 07:30 48.01222 -122.35919 24007 ft 356 kts 328°
2026-05-06 07:30 48.03337 -122.37835 23607 ft 355 kts 327°
2026-05-06 07:31 48.05423 -122.39720 23170 ft 354 kts 328°
2026-05-06 07:31 48.07523 -122.41612 22754 ft 351 kts 328°
2026-05-06 07:31 48.09641 -122.43516 22357 ft 349 kts 328°
2026-05-06 07:31 48.11690 -122.45357 21980 ft 347 kts 328°
2026-05-06 07:32 48.13752 -122.47208 21605 ft 345 kts 327°
2026-05-06 07:32 48.15802 -122.49049 21231 ft 343 kts 327°
2026-05-06 07:32 48.17840 -122.50882 20864 ft 340 kts 327°
2026-05-06 07:32 48.19866 -122.52704 20495 ft 339 kts 327°
2026-05-06 07:33 48.21880 -122.54516 20123 ft 337 kts 327°
2026-05-06 07:33 48.23886 -122.56324 19756 ft 336 kts 327°
2026-05-06 07:33 48.25884 -122.58125 19392 ft 334 kts 327°
2026-05-06 07:33 48.27873 -122.59921 19037 ft 333 kts 327°
2026-05-06 07:34 48.29856 -122.61712 18665 ft 332 kts 327°
2026-05-06 07:34 48.31831 -122.63498 18272 ft 331 kts 327°
2026-05-06 07:34 48.33802 -122.65282 17861 ft 330 kts 327°
2026-05-06 07:34 48.35765 -122.67061 17489 ft 328 kts 327°
2026-05-06 07:35 48.37712 -122.68832 17116 ft 326 kts 327°
2026-05-06 07:35 48.39651 -122.70590 16735 ft 325 kts 327°
2026-05-06 07:35 48.41585 -122.72345 16353 ft 324 kts 327°
2026-05-06 07:35 48.43514 -122.74096 15978 ft 322 kts 327°
2026-05-06 07:36 48.45430 -122.75840 15616 ft 321 kts 327°
2026-05-06 07:36 48.47340 -122.77579 15251 ft 320 kts 327°
2026-05-06 07:36 48.49243 -122.79313 14892 ft 319 kts 327°
2026-05-06 07:36 48.51137 -122.81041 14536 ft 318 kts 327°
2026-05-06 07:37 48.53032 -122.82772 14147 ft 318 kts 327°
2026-05-06 07:37 48.54921 -122.84498 13783 ft 317 kts 328°
2026-05-06 07:37 48.56810 -122.86227 13384 ft 317 kts 328°
2026-05-06 07:37 48.58691 -122.87948 13012 ft 315 kts 328°
2026-05-06 07:38 48.61274 -122.90316 12496 ft 313 kts 328°
2026-05-06 07:38 48.75666 -123.03555 10026 ft 293 kts 328°
2026-05-06 07:38 48.88151 -123.15072 8182 ft 250 kts 327°
2026-05-06 07:38 48.99504 -123.26173 6276 ft 237 kts 312°
2026-05-06 07:39 49.02052 -123.44847 4510 ft 228 kts 277°
2026-05-06 07:39 49.08023 -123.55104 2767 ft 238 kts 23°
2026-05-06 07:39 49.09492 -123.54013 2874 ft 238 kts 18°
2026-05-06 07:39 49.11165 -123.53494 2990 ft 252 kts 11°
2026-05-06 07:40 49.12900 -123.52929 2976 ft 256 kts 14°
2026-05-06 07:40 49.14628 -123.52263 2983 ft 255 kts 15°
2026-05-06 07:40 49.16334 -123.51563 2985 ft 253 kts 16°
2026-05-06 07:40 49.17987 -123.50869 3001 ft 238 kts 16°
2026-05-06 07:41 49.19524 -123.50217 2984 ft 220 kts 16°
2026-05-06 07:41 49.20939 -123.49616 2965 ft 202 kts 15°
2026-05-06 07:41 49.22239 -123.48944 2969 ft 196 kts 32°
2026-05-06 07:41 49.23005 -123.47370 2983 ft 185 kts 81°
2026-05-06 07:42 49.23078 -123.46080 3009 ft 183 kts 88°
2026-05-06 07:42 49.23075 -123.44127 2991 ft 183 kts 93°
2026-05-06 07:42 49.23007 -123.42179 2862 ft 183 kts 95°
2026-05-06 07:42 49.22861 -123.40266 2631 ft 179 kts 99°
2026-05-06 07:43 49.22660 -123.38404 2411 ft 175 kts 101°
2026-05-06 07:43 49.22454 -123.36629 2184 ft 166 kts 101°
2026-05-06 07:43 49.22249 -123.34889 1964 ft 166 kts 101°
2026-05-06 07:43 49.22045 -123.33146 1743 ft 167 kts 101°
2026-05-06 07:44 49.21841 -123.31403 1494 ft 166 kts 102°
2026-05-06 07:44 49.21639 -123.29672 1299 ft 164 kts 101°
2026-05-06 07:44 49.21447 -123.28023 1060 ft 151 kts 101°
2026-05-06 07:44 49.21263 -123.26451 868 ft 150 kts 101°
2026-05-06 07:45 49.21083 -123.24891 669 ft 146 kts 100°
2026-05-06 07:45 49.20907 -123.23374 475 ft 144 kts 100°
2026-05-06 07:45 49.20727 -123.21872 312 ft 144 kts 99°
2026-05-06 07:45 49.20558 -123.20356 95 ft 144 kts 100°
2026-05-06 07:46 49.20388 -123.18938 27 ft 114 kts 100°
2026-05-06 07:46 49.20288 -123.18070 28 ft 52 kts 99°
2026-05-06 07:46 49.20219 -123.17722 26 ft 30 kts 121°
2026-05-06 07:46 49.20127 -123.17521 27 ft 10 kts 129°
2026-05-06 07:47 49.20082 -123.17439 25 ft 10 kts 130°
2026-05-06 07:47 49.20037 -123.17358 28 ft 10 kts 130°
2026-05-06 07:47 49.19988 -123.17265 25 ft 12 kts 124°
2026-05-06 07:47 49.19960 -123.17156 26 ft 11 kts 133°
2026-05-06 07:48 49.19890 -123.17173 25 ft 11 kts 205°
2026-05-06 07:48 49.19817 -123.17191 25 ft 11 kts 181°
2026-05-06 07:48 49.19744 -123.17193 27 ft 10 kts 181°
2026-05-06 07:48 49.19674 -123.17209 26 ft 10 kts 208°
2026-05-06 07:49 49.19649 -123.17299 24 ft 10 kts 278°
2026-05-06 07:49 49.19663 -123.17364 27 ft 4 kts 321°
2026-05-06 07:49 49.19688 -123.17371 27 ft 4 kts 357°
2026-05-06 07:49 49.19702 -123.17372 24 ft 1 kts 357°
2026-05-06 07:50 49.19706 -123.17373 24 ft 0 kts 357°